{"data":{"norad_id":26702,"intl_designator":"2001-007A","name":"ODIN","alt_names":[],"object_type":"PAYLOAD","status":"ACTIVE","operator":null,"country":"SWED","launch_date":"2001-02-20","launch_site_code":"SVOBO","launch_vehicle":null,"mission":null,"orbit_class":"UNKNOWN","rcs_meters":1.155,"size_class":null,"mass_kg":null,"dimensions":null,"purposes":["science"],"wikipedia_slug":null,"has_3d_model":false,"image_url":null,"decayed_at":null,"tle_current":{"epoch":"2026-05-25T01:14:27.299904Z","epoch_age_seconds":67824,"freshness":"FRESH","line1":"1 26702U 01007A   26145.05170486  .00117209  00000+0  10307-2 0  9996","line2":"2 26702  97.3902 184.6319 0004661 172.6884 187.4446 15.68405857385766","mean_motion":15.68405857,"eccentricity":0.0004661,"inclination_deg":97.3902,"raan_deg":184.6319,"arg_perigee_deg":172.6884,"mean_anomaly_deg":187.4446,"bstar":0.0010307,"rev_number":38576,"period_min":91.812970065949,"perigee_km":360.31903524536,"apogee_km":366.60355317522,"semimajor_km":6741.5982942103,"source":"CELESTRAK","updated_at":"2026-05-25T13:38:24.636356Z"}}}